Regional Weather Roundup
Issued by NWS

Home | Current Version | Previous Version | Text Only | Print | Product List | Glossary On
Versions: 1 2 3 4 5 6 7 8 9 10 11 12 13 14 15 16 17 18 19 20 21 22 23 24 25 26 27 28 29 30 31 32 33 34 35 36 37 38 39 40 41 42 43 44 45 46 47 48 49 50
000
ASUS46 KSEW 010410
RWRWA

WASHINGTON REGIONAL WEATHER ROUNDUP
NATIONAL WEATHER SERVICE SEATTLE WA
900 PM PDT SAT APR 30 2016

NOTE:"FAIR" INDICATES FEW OR NO CLOUDS BELOW 12,000 FEET WITH NO
SIGNIFICANT WEATHER AND/OR OBSTRUCTIONS TO VISIBILITY.

WAZ505-507>509-010500-
SEATTLE, TACOMA, EVERETT, AND VICINITY

CITY           SKY/WX    TMP DP  RH WIND       PRES   REMARKS
EVERETT        CLEAR     56  41  57 N7        30.31R
BOEING FIELD   PTCLDY    61  45  55 NW3       30.29R
RENTON         CLEAR     62  42  47 N3        30.28S
SEATAC AIRPORT PTCLDY    62  41  46 NE9       30.30S
JBLM-MCCHORD   CLEAR     58  40  49 NE5       30.28F
PUYALLUP       FAIR      52  43  71 CALM      30.29S
BREMERTON      CLEAR     50  43  76 CALM      30.32S
JBLM-FT LEWIS  CLEAR     60  40  47 N6        30.28S
TACOMA NARROWS CLEAR     57  39  51 N9        30.30S
$$

WAZ001-503-506-510-514-515-010500-
NORTH INTERIOR

CITY           SKY/WX    TMP DP  RH WIND       PRES   REMARKS
BELLINGHAM     CLEAR     52  45  77 CALM      30.30S
FRIDAY HARBOR  CLEAR     49  43  80 CALM      30.32R
EASTSOUND      CLEAR     52  45  76 CALM      30.29S
PORT ANGELES   CLEAR     50  45  83 W7        30.33R
EDIZ HOOK      FAIR      52  48  87 W10       30.33R
PORT TOWNSEND  FAIR      55  43  62 NW9       30.31S
NAS WHIDBEY    PTCLDY    51  47  86 W6        30.35R
ARLINGTON      CLEAR     54  41  62 NW7       30.32R
BURLINGTON     CLEAR     55  43  62 W6        30.30S
$$

WAZ020-022-039-040-504-511-512-010500-
SOUTHWEST INTERIOR

CITY           SKY/WX    TMP DP  RH WIND       PRES   REMARKS
SHELTON        CLEAR     58  44  60 SW3       30.27R
OLYMPIA        CLEAR     55  39  54 CALM      30.29R
CHEHALIS       FAIR      57  48  72 NW3       30.28R
KELSO          CLEAR     63  39  42 NW6       30.28R
VANCOUVER      CLEAR     64  43  46 NW6       30.22R
SCAPPOOSE, OR  CLEAR     63  44  50 NW10G18   30.22S
PORTLAND, OR   PTCLDY    63  42  46 NW8       30.22S
$$

WAZ021-516-517-010500-
WASHINGTON COAST

CITY           SKY/WX    TMP DP  RH WIND       PRES   REMARKS
FORKS          CLEAR     50  47  89 N9        30.32S
HOQUIAM        CLEAR     53  47  79 W3        30.31S
ASTORIA, OR    CLEAR     54  47  77 NW13G20   30.29S
$$

WAZ019-023-024-040-518-519-010500-
CASCADE MOUNTAINS AND COLUMBIA GORGE

CITY           SKY/WX    TMP DP  RH WIND       PRES   REMARKS
STAMPEDE PASS  CLEAR     43  38  82 SW5       30.31R
TROUTDALE, OR  CLEAR     63  42  46 CALM      30.21S
THE DALLES, OR CLEAR     65  46  50 NW14      30.18R
$$

WAZ026-027-041>044-520-521-010500-
EAST SLOPES

CITY           SKY/WX    TMP DP  RH WIND       PRES   REMARKS
OMAK           CLEAR     59  31  34 N10       30.23R
WENATCHEE      CLEAR     61  42  49 E7        30.23R
ELLENSBURG     CLEAR     61  40  45 CALM      30.24R
YAKIMA         CLEAR     64  39  39 S3        30.22R
$$

WAZ028-034-035-010500-
COLUMBIA BASIN

CITY           SKY/WX    TMP DP  RH WIND       PRES   REMARKS
EPHRATA        CLOUDY    62  45  53 NE5       30.23R
MOSES LAKE     CLOUDY    64  44  48 NE6       30.23R
PASCO          CLEAR     53  45  74 CALM      30.21R
HERMISTON, OR  CLEAR     57  44  62 NE6       30.19R
$$

WAZ036>038-010500-
NORTHEAST WASHINGTON

CITY           SKY/WX    TMP DP  RH WIND       PRES   REMARKS
SPOKANE GEIGER PTCLDY    55  44  66 NW5       30.25R
SPOKANE FELTS  PTCLDY    50  47  89 CALM      30.26R
FAIRCHILD AFB  PTCLDY    50  43  76 N5        30.25S
COEURDALENE,ID PTCLDY    50  43  76 CALM      30.23R
DEER PARK      CLEAR     47  41  80 CALM      30.26R
$$

WAZ029>033-010500-
SOUTHEAST WASHINGTON

CITY           SKY/WX    TMP DP  RH WIND       PRES   REMARKS
PULLMAN        PTCLDY    47  44  90 CALM      30.25R
LEWISTON, ID   CLEAR     56  45  66 CALM      30.22R
WALLA WALLA    CLEAR     53  45  74 E8        30.21R
PENDLETON, OR  CLEAR     51  42  71 NE9       30.20R
$$



USA.gov is the U.S. government's official web portal to all federal, state and local government web resources and services.